PBO Station Position Time Series. Reference Frame : NAM14
Format Version,1.1.0
4-character ID,P294
Station name,AlcaldeHlsCN2006
Begin Date, 2006-05-18
End Date, 2019-10-07
Release Date, 2019-10-08
Reference position, 36.1232364390 North Latitude, -120.4398829746 East Longitude, 509.40493 meters elevation,
Date, North (mm), East (mm), Vertical (mm), North Std. Deviation (mm), East Std. Deviation (mm),              Vertical Std. Deviation (mm), Quality,
2006-05-18,0.00, 0.00, 0.00, 1.99, 1.62, 7.47, repro,
2006-05-19,0.87, -1.38, 1.43, 2.08, 1.65, 7.65, repro,
2006-05-20,0.50, -3.70, 2.26, 2.06, 1.67, 7.79, repro,
2006-05-21,1.33, -3.49, -7.96, 2.10, 1.67, 7.75, repro,
2006-05-22,1.62, -1.76, -4.39, 2.03, 1.62, 7.48, repro,
2006-05-23,1.39, -1.98, -3.13, 2.01, 1.61, 7.47, repro,
2006-05-24,0.52, -1.85, -3.98, 2.03, 1.64, 7.55, repro,
2006-05-25,0.76, -1.52, -3.80, 2.14, 1.67, 7.84, repro,
2006-05-26,0.02, -0.65, -4.05, 2.09, 1.66, 7.78, repro,
2006-05-27,-0.34, -1.63, 5.99, 2.04, 1.62, 7.52, repro,
2006-05-28,0.40, -1.40, -0.35, 2.01, 1.62, 7.46, repro,
2006-05-29,1.26, -1.74, -3.52, 2.03, 1.65, 7.61, repro,
2006-05-30,0.62, -1.57, -5.38, 2.11, 1.70, 7.78, repro,
2006-05-31,0.47, -1.24, -7.71, 2.12, 1.69, 7.81, repro,
2006-06-01,0.55, -1.80, -5.51, 2.07, 1.66, 7.69, repro,
2006-06-02,0.58, -1.38, -9.38, 2.15, 1.71, 7.89, repro,
2006-06-03,-0.53, -0.57, -1.74, 2.07, 1.67, 7.69, repro,
2006-06-04,0.46, -1.34, -5.43, 2.06, 1.65, 7.61, repro,
2006-06-05,-0.32, -2.35, -1.36, 2.12, 1.68, 7.81, repro,
2006-06-06,0.64, -1.51, -3.37, 2.10, 1.66, 7.76, repro,
2006-06-07,-0.59, -0.36, -1.80, 2.11, 1.67, 7.78, repro,
2006-06-08,0.79, -0.03, -2.00, 2.00, 1.61, 7.41, repro,
2006-06-09,-1.22, 0.54, 1.58, 2.08, 1.67, 7.66, repro,
2006-06-10,-0.79, -1.27, -0.57, 2.03, 1.63, 7.52, repro,
2006-06-11,-0.45, -1.76, -4.05, 2.07, 1.65, 7.65, repro,
2006-06-12,-0.66, -1.26, -5.20, 2.09, 1.73, 7.79, repro,
2006-06-13,1.77, -0.67, -7.02, 2.05, 1.65, 7.57, repro,
2006-06-14,0.37, -0.90, -3.51, 2.00, 1.61, 7.44, repro,
2006-06-15,1.92, 0.02, 2.80, 2.01, 1.62, 7.48, repro,
2006-06-16,3.33, -1.01, 2.71, 2.03, 1.63, 7.55, repro,
2006-06-17,2.49, -1.30, 1.06, 2.04, 1.63, 7.60, repro,
2006-06-18,0.92, -1.91, 0.66, 2.05, 1.66, 7.72, repro,
2006-06-19,0.89, -1.59, -4.25, 2.04, 1.65, 7.65, repro,
2006-06-20,0.51, -0.91, -2.15, 2.02, 1.65, 7.62, repro,
2006-06-21,0.53, -1.28, -6.64, 2.04, 1.66, 7.74, repro,
2006-06-22,0.39, -1.36, -8.14, 2.06, 1.68, 7.84, repro,
2006-06-23,1.00, -2.58, -3.52, 2.07, 1.67, 7.80, repro,
2006-06-24,0.74, -0.43, -6.73, 2.05, 1.66, 7.70, repro,
2006-06-25,-0.06, -0.15, -2.30, 2.07, 1.72, 7.79, repro,
2006-06-26,-0.14, -0.40, -4.61, 2.04, 1.67, 7.70, repro,
2006-06-27,-0.10, -0.74, 1.75, 2.11, 1.76, 7.98, repro,
2006-06-28,-0.06, 0.04, -0.41, 2.08, 1.72, 7.94, repro,
2006-06-29,0.49, -0.67, 2.42, 2.06, 1.75, 7.94, repro,
2006-06-30,0.70, -0.93, -3.16, 2.03, 1.67, 7.71, repro,
2006-07-01,0.72, -2.41, -0.50, 2.01, 1.64, 7.66, repro,
2006-07-02,0.25, -0.30, -3.43, 2.03, 1.68, 7.73, repro,
2006-07-03,0.08, -0.87, -8.69, 2.01, 1.65, 7.66, repro,
2006-07-04,-0.41, -1.36, 2.71, 2.07, 1.69, 7.79, repro,
2006-07-05,0.46, 0.15, -8.27, 2.01, 1.63, 7.66, repro,
2006-07-06,0.27, -1.05, -14.60, 2.02, 1.63, 7.63, repro,
2006-07-07,-0.63, -0.22, -9.04, 2.00, 1.62, 7.56, repro,
2006-07-08,-0.45, -1.42, -13.91, 2.00, 1.63, 7.61, repro,
2006-07-09,0.08, -0.89, -6.20, 2.03, 1.64, 7.72, repro,
2006-07-10,-0.39, -0.05, -1.12, 2.03, 1.63, 7.70, repro,
2006-07-11,0.25, -1.08, 2.60, 2.03, 1.63, 7.72, repro,
2006-07-12,-0.64, -1.55, -5.87, 2.01, 1.63, 7.62, repro,
2006-07-13,-0.47, -1.63, -3.56, 2.01, 1.63, 7.66, repro,
2006-07-14,0.48, -0.20, 0.11, 2.04, 1.67, 7.89, repro,
2006-07-15,0.41, -0.85, -2.51, 2.03, 1.64, 7.75, repro,
2006-07-16,-0.69, -1.29, 0.65, 2.02, 1.63, 7.66, repro,
2006-07-17,-0.12, -0.78, -3.68, 2.10, 1.74, 8.06, repro,
2006-07-18,-0.78, -1.88, -0.12, 1.95, 1.60, 7.39, repro,
2006-07-19,-0.28, -0.90, -4.18, 1.95, 1.61, 7.41, repro,
2006-07-20,-0.48, -1.28, -3.34, 1.98, 1.65, 7.49, repro,
2006-07-21,-0.06, -0.41, -2.75, 1.95, 1.60, 7.38, repro,
2006-07-22,-0.85, -1.09, 2.12, 2.05, 1.66, 7.88, repro,
2006-07-23,-1.72, -0.15, -2.74, 2.19, 1.85, 8.45, repro,
2006-07-24,-0.53, -2.70, 2.18, 1.99, 1.67, 7.59, repro,
2006-07-25,-0.04, -0.86, -1.66, 1.94, 1.61, 7.36, repro,
2006-07-26,0.36, 0.10, 3.02, 1.99, 1.65, 7.58, repro,
2006-07-27,0.98, 0.03, -5.38, 1.95, 1.60, 7.38, repro,
2006-07-28,-0.93, -0.88, -3.41, 2.00, 1.66, 7.52, repro,
2006-07-29,-0.65, -0.53, -4.99, 1.98, 1.66, 7.51, repro,
2006-07-30,0.53, -0.43, -3.54, 1.98, 1.66, 7.51, repro,
2006-07-31,-0.07, -0.45, -1.52, 1.95, 1.60, 7.38, repro,
2006-08-01,0.29, -0.69, -2.82, 1.95, 1.60, 7.38, repro,
2006-08-02,-0.46, -0.64, 0.06, 1.98, 1.65, 7.64, repro,
2006-08-03,0.02, -0.35, -1.43, 2.01, 1.70, 7.78, repro,
2006-08-04,-1.52, -0.66, 1.20, 2.03, 1.68, 7.78, repro,
2006-08-05,-0.01, 0.75, 0.22, 2.04, 1.71, 7.88, repro,
2006-08-06,-0.10, 0.05, -4.07, 2.20, 1.96, 8.75, repro,
2006-08-07,-0.21, 0.14, -6.73, 2.02, 1.71, 7.85, repro,
2006-08-08,-1.16, -0.11, -1.48, 1.95, 1.61, 7.37, repro,
2006-08-09,-0.17, 0.66, -6.17, 1.99, 1.66, 7.54, repro,
2006-08-10,-0.46, 0.19, 0.11, 1.95, 1.61, 7.39, repro,
2006-08-11,-1.61, -0.63, -2.81, 1.97, 1.61, 7.44, repro,
2006-08-12,0.25, -1.62, -3.07, 1.96, 1.61, 7.44, repro,
2006-08-13,0.59, -0.92, -0.58, 1.99, 1.67, 7.53, repro,
2006-08-14,-0.49, -1.39, 6.27, 1.99, 1.66, 7.54, repro,
2006-08-15,-0.38, 0.31, -2.11, 2.06, 1.69, 7.71, repro,
2006-08-16,-1.22, 0.66, -1.70, 2.00, 1.67, 7.59, repro,
2006-08-17,-0.16, -1.11, -1.76, 2.00, 1.66, 7.57, repro,
2006-08-18,0.03, -0.53, -3.68, 2.02, 1.70, 7.64, repro,
2006-08-19,-1.16, -0.36, -2.51, 1.93, 1.60, 7.30, repro,
2006-08-20,-0.97, -1.21, -1.44, 1.93, 1.61, 7.35, repro,
2006-08-21,-0.05, 0.13, -3.74, 1.97, 1.64, 7.45, repro,
2006-08-22,-0.31, -0.27, -4.45, 1.97, 1.64, 7.49, repro,
2006-08-23,-0.34, 0.01, -0.33, 1.96, 1.64, 7.44, repro,
2006-08-24,-0.60, 0.35, 2.38, 1.96, 1.64, 7.45, repro,
2006-08-25,-1.76, 0.43, 0.53, 1.98, 1.67, 7.61, repro,
2006-08-26,-0.51, -1.43, -1.63, 2.01, 1.70, 7.77, repro,
2006-08-27,-0.57, -0.74, -1.60, 2.03, 1.72, 7.84, repro,
2006-08-28,-0.52, -0.10, -0.67, 2.14, 1.87, 8.28, repro,
2006-08-29,0.34, 1.58, -6.34, 2.02, 1.73, 7.85, repro,
2006-08-30,-0.63, -0.47, 0.36, 2.08, 1.75, 8.03, repro,
2006-08-31,-1.04, 0.08, -7.65, 2.00, 1.72, 7.79, repro,
2006-09-01,0.10, -0.63, -10.47, 2.09, 1.76, 8.06, repro,
2006-09-02,-0.48, -0.76, -8.89, 2.03, 1.72, 7.87, repro,
2006-09-03,0.25, -0.40, 1.06, 2.03, 1.73, 7.88, repro,
2006-09-04,0.32, -1.15, -11.82, 2.08, 1.76, 8.01, repro,
2006-09-05,-0.41, -0.54, -10.62, 2.07, 1.76, 7.97, repro,
2006-09-06,0.60, -0.62, -12.31, 2.02, 1.72, 7.83, repro,
2006-09-07,-1.52, -0.00, -0.20, 2.08, 1.78, 8.11, repro,
2006-09-08,-1.30, -1.17, -0.13, 2.07, 1.78, 8.11, repro,
2006-09-09,-0.61, -1.39, -3.05, 1.98, 1.68, 7.53, repro,
2006-09-10,-0.51, -0.22, 0.29, 1.98, 1.68, 7.53, repro,
2006-09-11,-0.27, -0.43, -4.21, 1.98, 1.68, 7.54, repro,
2006-09-12,-0.16, -0.70, -7.95, 2.02, 1.69, 7.72, repro,
2006-09-13,0.09, 0.05, -2.64, 2.00, 1.68, 7.64, repro,
2006-09-14,0.31, -0.16, -1.58, 2.09, 1.78, 7.89, repro,
2006-09-15,0.96, -0.28, 0.15, 2.05, 1.67, 7.61, repro,
2006-09-16,-1.33, -0.63, 1.88, 1.95, 1.63, 7.38, repro,
2006-09-17,-0.15, -0.39, -0.70, 1.97, 1.64, 7.46, repro,
2006-09-18,-0.79, -0.19, -0.92, 1.98, 1.64, 7.53, repro,
2006-09-19,-0.02, -0.56, -4.92, 1.97, 1.64, 7.46, repro,
2006-09-20,-1.09, -1.22, -1.99, 1.96, 1.64, 7.41, repro,
2006-09-21,-1.39, -1.19, 0.43, 1.97, 1.67, 7.50, repro,
2006-09-22,-1.29, -2.06, 5.78, 2.08, 1.74, 7.89, repro,
2006-09-23,-0.07, -1.44, -4.30, 2.03, 1.67, 7.72, repro,
2006-09-24,-0.17, -0.46, -4.08, 2.12, 1.75, 8.06, repro,
2006-09-25,-0.19, -0.52, -5.90, 2.07, 1.68, 7.75, repro,
2006-09-26,0.67, -0.43, -6.31, 2.07, 1.75, 7.80, repro,
2006-09-27,-0.77, -0.08, -8.64, 2.14, 1.79, 8.16, repro,
2006-09-28,-0.60, -0.81, -5.34, 2.05, 1.70, 7.69, repro,
2006-09-29,0.44, -0.54, 2.33, 2.08, 1.72, 7.85, repro,
2006-09-30,-1.89, -1.02, -0.77, 2.01, 1.68, 7.66, repro,
2006-10-01,0.19, -0.57, -0.03, 1.99, 1.65, 7.50, repro,
2006-10-02,-0.84, -1.09, -5.76, 2.06, 1.78, 7.78, repro,
2006-10-03,0.08, -1.99, -7.73, 2.10, 1.78, 7.90, repro,
2006-10-04,-1.89, -1.08, -2.40, 2.05, 1.68, 7.71, repro,
2006-10-05,-0.74, -0.38, -2.92, 2.02, 1.66, 7.65, repro,
2006-10-06,-0.14, -0.54, -7.22, 2.03, 1.67, 7.75, repro,
2006-10-07,-0.71, -0.85, -7.20, 2.05, 1.73, 7.95, repro,
2006-10-08,-0.82, -1.31, -5.69, 2.04, 1.72, 7.91, repro,
2006-10-09,-0.05, -2.06, -6.06, 2.12, 1.75, 8.14, repro,
2006-10-10,-0.89, -1.72, -8.25, 2.03, 1.69, 7.77, repro,
2006-10-11,-1.94, -1.15, -2.97, 2.04, 1.73, 7.91, repro,
2006-10-12,-1.24, -0.41, 1.38, 2.02, 1.67, 7.66, repro,
2006-10-13,-1.12, -0.84, 8.24, 1.98, 1.66, 7.60, repro,
2006-10-14,-0.85, -1.06, -2.82, 2.04, 1.74, 7.91, repro,
2006-10-15,-0.64, -1.09, 0.42, 2.02, 1.70, 7.83, repro,
2006-10-16,1.28, -1.27, 3.31, 2.00, 1.66, 7.62, repro,
2006-10-17,1.56, -1.40, 1.44, 2.02, 1.72, 7.94, repro,
2006-10-18,0.61, -0.45, -1.24, 2.04, 1.79, 8.09, repro,
2006-10-19,-0.22, -0.47, -2.25, 2.19, 1.82, 8.53, repro,
2006-10-20,-0.71, -1.14, -0.40, 2.49, 2.26, 10.33, repro,
2006-10-21,-0.82, -1.47, -1.33, 2.23, 1.87, 8.73, repro,
2006-10-22,-0.80, -1.24, -4.01, 2.00, 1.72, 7.79, repro,
2006-10-23,-0.72, -0.82, -6.57, 2.05, 1.75, 8.02, repro,
2006-10-24,-0.23, -1.38, 1.01, 2.12, 1.75, 8.20, repro,
2006-10-25,-0.62, -1.77, -1.65, 2.13, 1.85, 8.24, repro,
2006-10-26,0.04, -1.26, -4.34, 2.04, 1.78, 7.96, repro,
2006-10-27,-0.08, -0.32, -8.13, 1.99, 1.76, 7.87, repro,
2006-10-28,-2.31, -0.69, -4.08, 2.14, 1.79, 8.42, repro,
2006-10-29,-1.09, -0.75, 0.43, 1.97, 1.71, 7.69, repro,
2006-10-30,-1.26, -0.90, 2.26, 1.91, 1.64, 7.42, repro,
2006-10-31,-0.81, -1.42, -2.43, 1.98, 1.72, 7.74, repro,
2006-11-01,-0.67, -0.73, -2.56, 1.99, 1.72, 7.78, repro,
2006-11-02,0.14, 1.86, -2.27, 1.95, 1.67, 7.57, repro,
2006-11-03,-0.27, -0.55, -5.26, 1.97, 1.71, 7.68, repro,
2006-11-04,-0.93, -1.43, -6.87, 2.02, 1.72, 7.78, repro,
2006-11-05,-0.12, -1.39, -3.38, 2.04, 1.76, 7.96, repro,
2006-11-06,-1.35, -1.41, -9.71, 1.93, 1.65, 7.51, repro,
2006-11-07,0.35, -0.16, -5.23, 2.07, 1.79, 8.15, repro,
2006-11-08,-0.89, -1.15, 0.54, 2.06, 1.75, 8.02, repro,
2006-11-09,0.62, -1.21, -4.75, 2.07, 1.80, 8.19, repro,
2006-11-10,0.42, -1.29, -4.65, 2.00, 1.67, 7.71, repro,
2006-11-11,-0.15, -0.51, -3.88, 2.03, 1.71, 7.90, repro,
2006-11-12,-0.44, -1.37, -7.88, 2.06, 1.78, 7.98, repro,
2006-11-13,0.87, -0.72, -4.30, 2.03, 1.72, 7.72, repro,
2006-11-14,-0.26, -1.28, -0.16, 1.93, 1.64, 7.44, repro,
2006-11-15,-0.53, -0.70, -7.33, 1.91, 1.63, 7.35, repro,
2006-11-16,-0.33, -1.03, -1.97, 1.92, 1.63, 7.40, repro,
2006-11-17,0.28, -0.58, -4.17, 1.92, 1.64, 7.40, repro,
2006-11-18,-1.02, -1.00, -8.90, 1.91, 1.63, 7.29, repro,
2006-11-19,-1.35, -0.98, -11.54, 1.92, 1.63, 7.36, repro,
2006-11-20,-1.36, -1.00, -9.52, 1.91, 1.63, 7.30, repro,
2006-11-21,0.08, -1.24, -4.24, 1.92, 1.63, 7.38, repro,
2006-11-22,-0.68, -1.63, -6.86, 1.93, 1.64, 7.41, repro,
2006-11-23,-0.88, -1.48, -13.83, 1.94, 1.67, 7.52, repro,
2006-11-24,-0.38, -1.82, -6.22, 2.00, 1.71, 7.70, repro,
2006-11-25,-1.29, -1.47, -2.91, 1.95, 1.65, 7.41, repro,
2006-11-26,-0.33, -1.28, -6.21, 2.00, 1.69, 7.55, repro,
2006-11-27,-2.04, -1.42, -11.28, 1.96, 1.66, 7.50, repro,
2006-11-28,-0.98, -1.07, -7.13, 1.92, 1.64, 7.37, repro,
2006-11-29,-0.41, -1.06, -7.53, 1.91, 1.64, 7.35, repro,
2006-11-30,-0.81, -0.09, -8.85, 1.93, 1.64, 7.38, repro,
2006-12-01,-1.32, -1.06, -12.38, 1.93, 1.65, 7.37, repro,
2006-12-02,-0.97, -1.51, -13.93, 1.92, 1.64, 7.36, repro,
2006-12-03,-0.64, -1.02, -10.47, 1.93, 1.64, 7.41, repro,
2006-12-04,-0.10, -1.32, -13.37, 1.96, 1.66, 7.50, repro,
2006-12-05,-0.33, -0.78, -13.25, 1.96, 1.71, 7.53, repro,
2006-12-06,-0.20, -0.64, -10.95, 2.06, 1.84, 8.13, repro,
2006-12-07,-0.63, -1.61, -9.19, 1.96, 1.72, 7.56, repro,
2006-12-08,1.47, -0.96, -8.54, 1.94, 1.72, 7.53, repro,
2006-12-09,-1.54, -0.35, -0.19, 1.95, 1.75, 7.63, repro,
2006-12-10,-1.06, -3.20, -2.92, 2.02, 1.74, 7.68, repro,
2006-12-11,-0.05, -2.13, -13.42, 1.93, 1.67, 7.44, repro,
2006-12-12,0.19, -1.56, -13.32, 2.06, 1.78, 8.04, repro,
2006-12-13,0.67, -1.71, -14.75, 1.96, 1.73, 7.59, repro,
2006-12-14,0.03, -1.99, -7.37, 1.90, 1.67, 7.41, repro,
2006-12-15,-0.35, -2.23, -10.17, 2.02, 1.78, 7.87, repro,
2006-12-16,-1.10, -1.54, -7.90, 2.05, 1.82, 7.80, repro,
2006-12-17,-0.40, -2.10, -7.39, 2.09, 1.90, 8.44, repro,
2006-12-18,-0.50, -1.43, -6.72, 2.23, 1.95, 8.82, repro,
2006-12-19,-0.40, -0.41, -5.91, 2.04, 1.91, 8.14, repro,
2006-12-20,-0.62, -2.21, -9.02, 2.08, 1.90, 8.09, repro,
2006-12-21,-0.64, -1.40, -14.54, 1.93, 1.80, 7.62, repro,
2006-12-22,0.12, -2.12, -6.35, 2.22, 2.14, 8.99, repro,
2006-12-23,-0.13, -0.74, -15.76, 2.03, 1.84, 7.98, repro,
2006-12-24,0.71, -1.94, -19.11, 1.97, 1.69, 7.54, repro,
2006-12-25,-0.93, -0.46, -17.70, 1.98, 1.81, 7.71, repro,
2006-12-26,0.56, -1.32, -8.97, 2.00, 1.77, 7.87, repro,
2006-12-27,0.87, -5.47, -17.78, 2.01, 1.82, 8.00, repro,
2006-12-28,-4.86, -1.82, -6.69, 2.24, 2.12, 8.93, repro,
2006-12-29,-0.90, -2.10, -9.03, 2.19, 2.00, 8.74, repro,
2006-12-30,0.37, -1.73, -9.39, 1.98, 1.77, 7.81, repro,
2006-12-31,-0.23, -2.05, -8.91, 2.18, 2.00, 8.72, repro,
2007-01-01,-1.29, -2.02, -11.23, 2.32, 2.13, 9.22, repro,
2007-01-02,-0.47, -1.48, -11.02, 2.21, 2.06, 8.79, repro,
2007-01-03,0.81, -1.67, -5.92, 1.99, 1.83, 7.84, repro,
2007-01-04,0.23, -3.94, -6.63, 1.92, 1.69, 7.49, repro,
2007-01-05,-0.57, -3.21, -9.97, 1.94, 1.76, 7.66, repro,
2007-01-06,1.58, -1.55, -18.91, 1.95, 1.81, 7.70, repro,
2007-01-07,3.42, -0.15, -19.60, 1.95, 1.68, 7.45, repro,
2007-01-08,-0.29, -2.04, -17.11, 2.00, 1.74, 7.75, repro,
2007-01-09,-0.19, -1.39, -14.23, 1.96, 1.68, 7.41, repro,
2007-01-10,-0.41, -1.31, -10.92, 1.99, 1.73, 7.59, repro,
2007-01-11,0.03, -1.98, -8.02, 1.99, 1.68, 7.54, repro,
2007-01-12,-0.43, -1.60, -14.91, 1.90, 1.61, 7.20, repro,
2007-01-13,-0.46, -1.01, -18.03, 1.89, 1.62, 7.22, repro,
2007-01-14,-0.34, -1.24, -13.46, 1.89, 1.62, 7.22, repro,
2007-01-15,0.01, -1.19, -18.08, 1.88, 1.63, 7.21, repro,
2007-01-16,-0.13, -1.80, -15.43, 1.91, 1.62, 7.23, repro,
2007-01-17,-0.68, -1.67, -13.76, 1.90, 1.65, 7.27, repro,
2007-01-18,-0.50, -1.31, -20.48, 1.95, 1.70, 7.45, repro,
2007-01-19,0.36, -0.97, -13.40, 1.97, 1.64, 7.53, repro,
2007-01-20,0.09, -0.73, -11.69, 1.94, 1.64, 7.45, repro,
2007-01-21,0.22, 0.97, -6.61, 1.89, 1.62, 7.20, repro,
2007-01-22,-0.67, -0.48, -12.78, 1.86, 1.61, 7.09, repro,
2007-01-23,-0.32, -0.72, -16.08, 1.89, 1.61, 7.13, repro,
2007-01-24,-0.55, -1.26, -16.21, 1.89, 1.62, 7.15, repro,
2007-01-25,-0.11, -1.22, -19.64, 1.93, 1.67, 7.28, repro,
2007-01-26,-0.42, -0.91, -10.08, 1.88, 1.62, 7.13, repro,
2007-01-27,-0.36, -0.66, -13.35, 1.87, 1.61, 7.09, repro,
2007-01-28,-0.40, -1.09, -11.39, 1.89, 1.60, 7.06, repro,
2007-01-29,-1.95, -0.14, -11.40, 1.89, 1.61, 7.08, repro,
2007-01-30,-0.66, -0.85, -13.46, 1.87, 1.61, 7.07, repro,
2007-01-31,-1.41, -1.26, -6.40, 1.89, 1.61, 7.13, repro,
2007-02-01,-1.04, -0.38, -10.72, 1.91, 1.65, 7.24, repro,
2007-02-02,-1.22, -1.04, -11.71, 1.92, 1.63, 7.27, repro,
2007-02-03,-0.86, -0.95, -16.60, 1.92, 1.62, 7.24, repro,
2007-02-04,-1.44, -0.62, -13.58, 1.87, 1.60, 7.04, repro,
2007-02-05,-0.25, -0.51, -15.20, 1.87, 1.60, 7.05, repro,
2007-02-06,-1.18, -0.84, -13.72, 1.92, 1.62, 7.20, repro,
2007-02-07,-1.05, -0.43, -13.84, 1.93, 1.67, 7.26, repro,
2007-02-08,-1.14, 0.17, -17.59, 1.97, 1.68, 7.46, repro,
2007-02-09,-2.25, 0.34, -14.48, 1.91, 1.67, 7.30, repro,
2007-02-10,1.74, 0.62, 1.25, 1.91, 1.67, 7.27, repro,
2007-02-11,4.88, 2.46, 0.46, 1.89, 1.62, 7.13, repro,
2007-02-12,-2.21, -0.25, -19.31, 1.88, 1.62, 7.16, repro,
2007-02-13,-2.30, -0.47, -9.86, 1.87, 1.60, 7.08, repro,
2007-02-14,-1.00, -0.24, -12.76, 1.89, 1.60, 7.07, repro,
2007-02-15,1.56, 0.30, -14.04, 1.89, 1.62, 7.13, repro,
2007-02-16,0.26, -0.53, -16.73, 1.90, 1.62, 7.16, repro,
2007-02-17,-0.07, -0.11, -14.10, 1.93, 1.66, 7.24, repro,
2007-02-18,0.46, 0.06, -7.70, 1.90, 1.62, 7.21, repro,
2007-02-19,-2.02, -0.98, -1.18, 1.89, 1.61, 7.12, repro,
2007-02-20,-1.63, -0.84, -6.95, 1.89, 1.61, 7.11, repro,
2007-02-21,-1.05, -0.57, -4.91, 1.88, 1.62, 7.15, repro,
2007-02-22,-0.85, 1.52, -2.22, 1.90, 1.63, 7.25, repro,
2007-02-23,-1.01, -0.91, -12.66, 1.97, 1.69, 7.42, repro,
2007-02-24,-0.65, -0.76, -10.07, 1.88, 1.60, 7.09, repro,
2007-02-25,-2.59, -1.26, -9.09, 1.89, 1.60, 7.08, repro,
2007-02-26,-1.71, -0.78, -11.38, 1.88, 1.61, 7.08, repro,
2007-02-27,-0.29, 0.09, -5.16, 1.88, 1.61, 7.13, repro,
2007-02-28,-0.24, -2.42, -5.74, 1.90, 1.61, 7.16, repro,
2007-03-01,0.04, -0.26, -4.50, 1.93, 1.67, 7.33, repro,
2007-03-02,-1.87, -0.84, -16.16, 1.94, 1.67, 7.36, repro,
2007-03-03,-0.46, -0.69, -15.90, 1.91, 1.65, 7.26, repro,
2007-03-04,-0.02, -0.80, -15.74, 1.90, 1.65, 7.25, repro,
2007-03-05,-0.78, -0.59, -11.72, 1.92, 1.66, 7.34, repro,
2007-03-06,-0.84, -1.47, -11.53, 1.90, 1.63, 7.24, repro,
2007-03-07,-0.05, -0.76, -4.75, 1.92, 1.65, 7.31, repro,
2007-03-08,-0.98, -1.08, -5.25, 1.91, 1.65, 7.26, repro,
2007-03-09,-0.94, -0.76, -8.70, 1.91, 1.65, 7.30, repro,
2007-03-10,-0.02, -0.50, -7.30, 1.95, 1.69, 7.50, repro,
2007-03-11,-0.13, -1.07, -10.05, 1.96, 1.71, 7.55, repro,
2007-03-12,-0.51, -1.46, -10.82, 1.93, 1.68, 7.50, repro,
2007-03-13,-1.16, -1.13, -5.75, 1.88, 1.61, 7.15, repro,
2007-03-14,-0.77, -0.56, -11.70, 1.91, 1.66, 7.34, repro,
2007-03-15,-2.02, -0.29, -9.93, 1.93, 1.67, 7.38, repro,
2007-03-16,-0.37, -0.48, -4.58, 1.92, 1.62, 7.20, repro,
2007-03-17,-1.37, -1.22, -2.72, 1.90, 1.59, 7.10, repro,
2007-03-18,-1.57, -1.29, -1.18, 1.90, 1.63, 7.25, repro,
2007-03-19,-0.07, -1.36, -5.07, 1.92, 1.64, 7.29, repro,
2007-03-20,-0.72, -1.25, -7.08, 1.95, 1.62, 7.26, repro,
2007-03-21,-1.62, -1.67, 1.62, 1.98, 1.65, 7.42, repro,
2007-03-22,-1.24, -1.30, -0.25, 1.90, 1.59, 7.12, repro,
2007-03-23,-0.61, -1.35, -2.63, 1.92, 1.63, 7.28, repro,
2007-03-24,-1.42, -1.71, -2.11, 1.91, 1.63, 7.27, repro,
2007-03-25,-1.52, -1.33, -0.35, 1.89, 1.60, 7.11, repro,
2007-03-26,-1.51, -1.43, -4.21, 1.90, 1.60, 7.14, repro,
2007-03-27,1.13, -1.63, -7.48, 1.95, 1.61, 7.22, repro,
2007-03-28,-0.96, -1.52, -8.41, 1.95, 1.61, 7.24, repro,
2007-03-29,-1.55, -0.19, -4.40, 1.92, 1.63, 7.29, repro,
2007-03-30,-1.60, -0.94, -10.14, 1.89, 1.59, 7.09, repro,
2007-03-31,-0.85, -0.76, -6.11, 1.90, 1.61, 7.19, repro,
2007-04-01,-1.58, -0.42, -8.79, 1.92, 1.64, 7.30, repro,
2007-04-02,-1.58, 0.16, 0.41, 1.89, 1.58, 7.06, repro,
2007-04-03,-1.14, -1.34, -8.57, 1.92, 1.62, 7.23, repro,
2007-04-04,-1.66, -1.53, -3.86, 1.93, 1.63, 7.29, repro,
2007-04-05,-2.52, -0.78, -7.49, 1.98, 1.75, 7.62, repro,
2007-04-06,-1.84, -1.13, -4.98, 1.97, 1.72, 7.53, repro,
2007-04-07,-1.91, -1.99, -3.31, 1.93, 1.63, 7.24, repro,
2007-04-08,-1.41, -0.99, -4.13, 1.89, 1.58, 7.04, repro,
2007-04-09,-0.87, -0.46, -3.33, 1.90, 1.58, 7.05, repro,
2007-04-10,-1.41, -0.79, -3.72, 1.94, 1.64, 7.33, repro,
2007-04-11,-1.71, -1.39, -1.44, 1.91, 1.60, 7.18, repro,
2007-04-12,0.42, -1.96, 2.09, 1.90, 1.61, 7.20, repro,
2007-04-13,-0.73, -1.30, -4.85, 1.91, 1.59, 7.12, repro,
2007-04-14,-0.31, -1.03, -2.00, 1.92, 1.60, 7.14, repro,
2007-04-15,-0.49, -0.35, -7.23, 1.91, 1.60, 7.14, repro,
2007-04-16,-0.52, -1.46, -1.68, 1.89, 1.59, 7.09, repro,
2007-04-17,-1.08, -1.37, -5.25, 1.97, 1.65, 7.38, repro,
2007-04-18,-1.88, -1.31, -5.50, 1.91, 1.60, 7.19, repro,
2007-04-19,-1.55, -1.11, -7.69, 1.91, 1.59, 7.17, repro,
2007-04-20,-0.32, -1.79, -5.64, 1.91, 1.58, 7.09, repro,
2007-04-21,-1.20, -1.31, -3.65, 1.89, 1.59, 7.14, repro,
2007-04-22,-0.84, -1.34, -1.45, 1.91, 1.60, 7.21, repro,
2007-04-23,-2.46, -1.89, -2.03, 1.94, 1.63, 7.29, repro,
2007-04-24,-1.02, -0.71, -10.80, 1.94, 1.62, 7.28, repro,
2007-04-25,-0.09, -1.50, -10.46, 1.95, 1.62, 7.26, repro,
2007-04-26,-1.60, -1.72, -5.60, 1.90, 1.59, 7.14, repro,
2007-04-27,-0.46, -1.36, -9.69, 1.89, 1.58, 7.10, repro,
2007-04-28,-0.34, -1.51, -1.09, 1.91, 1.59, 7.15, repro,
2007-04-29,-0.80, -0.96, -11.94, 1.92, 1.59, 7.18, repro,
2007-04-30,-0.19, -1.78, -8.05, 1.92, 1.59, 7.16, repro,
2007-05-01,-1.41, -0.77, -5.32, 1.92, 1.59, 7.19, repro,
2007-05-02,-4.29, -2.45, -3.36, 1.97, 1.60, 7.38, repro,
2007-05-03,1.11, -1.94, -5.65, 2.03, 1.63, 7.57, repro,
2007-05-04,-1.56, -2.26, -4.54, 1.92, 1.58, 7.19, repro,
2007-05-05,1.37, -2.64, -3.84, 1.96, 1.63, 7.30, repro,
2007-05-06,1.87, -0.70, -9.22, 1.98, 1.62, 7.31, repro,
2007-05-07,-0.59, -1.19, -7.26, 1.93, 1.59, 7.19, repro,
2007-05-08,-0.21, -0.65, -5.98, 1.90, 1.57, 7.11, repro,
2007-05-09,-0.80, -0.58, -4.24, 1.93, 1.58, 7.20, repro,
2007-05-10,0.07, -0.63, -6.83, 2.09, 1.69, 7.77, repro,
2007-05-11,-0.64, -1.75, -9.98, 2.07, 1.68, 7.72, repro,
2007-05-12,-2.08, -0.99, -6.37, 1.93, 1.58, 7.19, repro,
2007-05-13,-0.38, -0.03, -7.70, 2.00, 1.66, 7.44, repro,
2007-05-14,-1.58, -0.45, -6.12, 1.94, 1.60, 7.23, repro,
2007-05-15,-0.70, -1.66, -8.87, 1.94, 1.59, 7.20, repro,
2007-05-16,-0.40, -0.85, -6.28, 1.94, 1.59, 7.15, repro,
2007-05-17,-0.77, -1.75, -5.17, 1.97, 1.62, 7.29, repro,
2007-05-18,-1.52, -2.20, -3.17, 2.01, 1.69, 7.48, repro,
2007-05-19,-1.78, -0.42, -6.89, 1.96, 1.61, 7.24, repro,
2007-05-20,-0.71, -0.95, -5.53, 1.99, 1.65, 7.36, repro,
2007-05-21,-0.81, -1.43, -11.06, 2.14, 1.75, 7.80, repro,
2007-05-22,-0.40, -1.27, -1.26, 1.97, 1.62, 7.27, repro,
2007-05-23,-1.52, -1.01, 0.86, 2.04, 1.72, 7.59, repro,
2007-05-24,-1.57, -1.17, -3.33, 2.08, 1.73, 7.72, repro,
2007-05-25,-1.60, 0.07, -3.74, 1.96, 1.61, 7.21, repro,
2007-05-26,-1.56, -0.01, -5.96, 1.97, 1.63, 7.30, repro,
2007-05-27,-0.73, -2.25, -4.04, 1.99, 1.64, 7.31, repro,
2007-05-28,-1.46, -1.63, -5.44, 1.98, 1.60, 7.21, repro,
2007-05-29,-1.37, -1.19, -8.36, 1.94, 1.58, 7.12, repro,
2007-05-30,-1.67, -0.41, -8.37, 1.99, 1.59, 7.25, repro,
2007-05-31,-0.92, -1.22, -5.80, 1.98, 1.62, 7.27, repro,
2007-06-01,-1.98, -1.91, -3.68, 1.94, 1.60, 7.15, repro,
2007-06-02,-1.58, -1.24, -7.50, 1.93, 1.59, 7.17, repro,
2007-06-03,-1.27, -1.23, -4.03, 1.92, 1.58, 7.13, repro,
2007-06-04,-1.74, -0.35, -1.87, 1.93, 1.57, 7.12, repro,
2007-06-05,-0.50, -1.15, -0.21, 1.97, 1.61, 7.33, repro,
2007-06-06,-1.56, -1.34, 6.93, 1.92, 1.61, 7.18, repro,
2007-06-07,-0.65, -1.18, -2.24, 1.92, 1.59, 7.15, repro,
2007-06-08,-0.87, -1.55, -4.21, 1.93, 1.58, 7.14, repro,
2007-06-09,-1.92, -1.74, -4.86, 1.94, 1.61, 7.23, repro,
2007-06-10,-0.61, -1.30, -6.99, 1.93, 1.59, 7.19, repro,
2007-06-11,-1.16, -1.04, -4.43, 1.97, 1.70, 7.37, repro,
2007-06-12,-1.50, -0.65, -5.26, 1.97, 1.69, 7.32, repro,
2007-06-13,-0.98, -1.39, -5.93, 1.97, 1.63, 7.26, repro,
2007-06-14,-1.40, -0.97, -10.40, 1.97, 1.62, 7.20, repro,
2007-06-15,-0.87, -0.93, -6.44, 1.92, 1.59, 7.19, repro,
2007-06-16,-2.35, -1.08, -5.91, 1.91, 1.59, 7.14, repro,
2007-06-17,-0.94, -0.32, -8.17, 1.91, 1.59, 7.12, repro,
2007-06-18,-0.44, 0.29, -3.31, 1.92, 1.58, 7.14, repro,
2007-06-19,-0.96, -0.44, -5.68, 1.93, 1.57, 7.12, repro,
2007-06-20,-2.55, -0.90, -9.86, 1.92, 1.59, 7.17, repro,
2007-06-21,-1.82, -0.85, -4.76, 1.94, 1.61, 7.29, repro,
2007-06-22,-1.11, -0.45, -8.59, 1.91, 1.59, 7.16, repro,
2007-06-23,-0.70, -1.13, -8.55, 1.91, 1.58, 7.13, repro,
2007-06-24,-1.49, -0.95, -9.83, 1.95, 1.63, 7.40, repro,
2007-06-25,-1.87, 0.32, -9.85, 1.93, 1.57, 7.13, repro,
2007-06-26,-2.32, -0.09, -10.88, 1.92, 1.59, 7.17, repro,
2007-06-27,-2.11, -0.10, -15.42, 1.92, 1.59, 7.18, repro,
2007-06-28,-2.12, -0.60, -11.54, 1.92, 1.59, 7.18, repro,
2007-06-29,-1.50, 0.36, -3.47, 1.92, 1.58, 7.19, repro,
2007-06-30,-1.97, 0.14, -6.74, 1.93, 1.59, 7.21, repro,
2007-07-01,-1.17, -0.04, -4.56, 1.91, 1.58, 7.15, repro,
2007-07-02,-1.46, 0.72, -5.94, 1.92, 1.59, 7.20, repro,
2007-07-03,-1.04, 0.20, -9.19, 1.92, 1.60, 7.20, repro,
2007-07-04,-1.84, -0.05, -6.60, 1.92, 1.60, 7.22, repro,
2007-07-05,-1.33, 0.62, -8.42, 1.95, 1.60, 7.33, repro,